Weather History for Tekamah, NE

Change the Weather History Date:

Friday, April 27, 2012

  Actual Average Record
Temperature  
Mean Temperature 54 °F -  
Max Temperature 64 °F 70 °F 95 °F (1989)
Min Temperature 44 °F 45 °F 23 °F (1950)
Degree Days  
Heating Degree Days 11    
Growing Degree Days 4 (Base 50)    
Moisture  
Dew Point 38 °F    
Average Humidity 58    
Maximum Humidity 82    
Minimum Humidity 31    
Precipitation  
Precipitation 0.44 in - - ()
Sea Level Pressure  
Sea Level Pressure 29.79 in    
Wind  
Wind Speed 19 mph (ESE)    
Max Wind Speed 37 mph    
Max Gust Speed 47 mph    
Visibility 8 miles    
Events Rain , Thunderstorm    
Averages and records for this station are not official NWS values.
T = Trace of Precipitation, MM = Missing Value Source: NWS Daily Summary

Daily Weather History Graph

Daily Weather History Graph

Search for Another Location

Airport:

Trip Planner

Search our weather history database for the weather conditions in past years. The results will help you decide how hot, cold, wet, or windy it might be!

Date:

Astronomy

Apr. 27, 2012 Rise Set
Actual Time 6:25 AM CDT 8:19 PM CDT
Civil Twilight 5:55 AM CDT 8:49 PM CDT
Nautical Twilight 5:19 AM CDT 9:25 PM CDT
Astronomical Twilight 4:40 AM CDT 10:05 PM CDT
Moon 11:03 AM CDT (4/27) 1:08 AM CDT (4/27)
Length of Visible Light 14h 53m
Length of Day
13h 53m
Waxing Crescent, 33% of the Moon is Illuminated
Apr 27
Waxing Crescent
Apr 29
First Quarter
May 5
Full
May 12
Last Quarter
May 20
New

Hourly Weather History & Observations

Time (CDT) Temp. Windchill Dew Point Humidity Pressure Visibility Wind Dir Wind Speed Gust Speed Precip Events Conditions
12:54 AM 57.9 °F - 36.0 °F 44% 30.01 in 10.0 mi East 13.8 mph - 0.00 in Rain Light Rain
1:54 AM 53.1 °F - 39.9 °F 61% 30.00 in 10.0 mi East 15.0 mph - 0.02 in Rain Light Rain
2:54 AM 52.0 °F - 39.9 °F 63% 29.96 in 10.0 mi East 15.0 mph - 0.00 in   Overcast
3:54 AM 52.0 °F - 37.9 °F 59% 29.96 in 10.0 mi East 12.7 mph - N/A   Overcast
4:54 AM 52.0 °F - 37.0 °F 57% 29.94 in 10.0 mi East 15.0 mph - N/A   Clear
5:54 AM 52.0 °F - 36.0 °F 54% 29.92 in 10.0 mi ESE 15.0 mph - N/A   Clear
7:54 AM 53.1 °F - 36.0 °F 52% 29.91 in 10.0 mi ESE 20.7 mph - N/A   Mostly Cloudy
8:54 AM 55.0 °F - 37.9 °F 53% 29.91 in 10.0 mi ESE 17.3 mph - 0.00 in   Mostly Cloudy
9:54 AM 57.0 °F - 39.9 °F 53% 29.90 in 10.0 mi ESE 25.3 mph 33.4 mph N/A   Mostly Cloudy
10:54 AM 60.1 °F - 37.9 °F 44% 29.85 in 10.0 mi ESE 29.9 mph 38.0 mph N/A   Scattered Clouds
11:54 AM 63.0 °F - 37.0 °F 38% 29.83 in 10.0 mi ESE 34.5 mph 41.4 mph N/A   Partly Cloudy
12:54 PM 62.1 °F - 35.1 °F 37% 29.81 in 10.0 mi ESE 32.2 mph 43.7 mph N/A   Clear
1:54 PM 61.0 °F - 35.1 °F 38% 29.77 in 10.0 mi ESE 25.3 mph 33.4 mph 0.00 in   Clear
2:47 PM 64.4 °F - 33.8 °F 32% 29.70 in 5.0 mi East 31.1 mph 47.2 mph N/A   Haze
2:54 PM 64.0 °F - 33.1 °F 31% 29.69 in 9.0 mi East 36.8 mph 46.0 mph N/A   Partly Cloudy
3:54 PM 60.1 °F - 34.0 °F 38% 29.72 in 7.0 mi SE 29.9 mph 42.6 mph 0.00 in Rain , Thunderstorm Light Rain
4:21 PM 55.4 °F - 39.2 °F 54% 29.73 in 1.8 mi ESE 31.1 mph 38.0 mph 0.08 in Rain , Thunderstorm Thunderstorms and Rain
4:34 PM 51.8 °F - 42.8 °F 71% 29.74 in 3.0 mi ESE 17.3 mph 36.8 mph 0.13 in Rain , Thunderstorm Light Thunderstorms and Rain
4:54 PM 51.1 °F - 41.0 °F 68% 29.69 in 8.0 mi East 25.3 mph 40.3 mph 0.14 in Rain , Thunderstorm Light Rain
5:54 PM 51.1 °F - 39.9 °F 66% 29.67 in 10.0 mi East 21.9 mph 32.2 mph 0.00 in   Overcast
6:54 PM 52.0 °F - 39.0 °F 61% 29.67 in 10.0 mi ESE 24.2 mph 33.4 mph 0.00 in   Overcast
7:54 PM 51.1 °F - 37.9 °F 61% 29.64 in 10.0 mi East 23.0 mph 29.9 mph N/A   Overcast
8:19 PM 51.8 °F - 37.4 °F 58% 29.71 in 10.0 mi SE 11.5 mph 23.0 mph N/A Thunderstorm Overcast
8:39 PM 48.2 °F - 39.2 °F 71% 29.71 in 2.0 mi ESE 20.7 mph 27.6 mph 0.09 in Rain , Thunderstorm Heavy Thunderstorms and Rain
8:54 PM 46.9 °F - 39.9 °F 77% 29.70 in 5.0 mi East 17.3 mph 26.5 mph 0.12 in Rain , Thunderstorm Light Rain
9:07 PM 48.2 °F - 39.2 °F 71% 29.72 in 5.0 mi East 16.1 mph - 0.01 in Rain Light Rain
9:54 PM 46.9 °F - 39.0 °F 74% 29.72 in 9.0 mi East 15.0 mph - 0.03 in Rain Light Rain
10:54 PM 46.9 °F - 37.9 °F 71% 29.72 in 10.0 mi East 10.4 mph 18.4 mph 0.01 in   Overcast
11:29 PM 44.6 °F 41.4 °F 39.2 °F 81% 29.74 in 2.0 mi ENE 5.8 mph - 0.09 in Rain Rain
11:46 PM 44.6 °F 40.2 °F 39.2 °F 81% 29.74 in 5.0 mi NE 8.1 mph - 0.12 in Rain Light Rain
11:54 PM 45.0 °F 41.8 °F 39.9 °F 82% 29.73 in 9.0 mi NNE 5.8 mph - 0.12 in Rain Light Rain